Location: Sungai Bunut
(2.6333°N, 113.7333°E)
Time: 17:29:27
(UTC+00:00)

S-56A Canister/Altair - Pass Details

Date: 03 December 2023
Orbit: 640 x 2488 km, 38.9° (Epoch: 20 February)

Event Time Altitude Azimuth Distance (km) Brightness Sun altitude
Rises 21:45:52 0° 202° (SSW) 5,646 12.0 -7.7°
Reaches altitude 10° 21:53:16 10° 176° (S) 4,177 11.6 -6.0°
Maximum altitude 21:57:06 12° 155° (SSE) 3,707 11.8 -5.1°
Drops below altitude 10° 22:00:30 10° 134° (SE) 3,613 12.3 -4.3°
Sets 22:05:38 0° 105° (ESE) 4,144 13.9 -3.1°
